Location: Aalen
(48.8330°N, 10.1000°E)
Time: 05:57:04
(UTC+02:00)

Vanguard 1 Rocket - Visible Passes

Search period start: 06 August 2021 00:00
Search period end: 16 August 2021 00:00
Orbit: 650 x 4226 km, 34.3° (Epoch: 05 August)

Date Brightness Start Highest point End Pass type
(mag) Time Alt. Az. Time Alt. Az. Time Alt. Az.
10 Aug 11.9 05:25:05 10° SSE 05:35:57 14° SE 05:46:13 10° ESE visible
12 Aug 11.8 05:22:29 10° SSE 05:37:24 19° SE 05:51:32 10° E visible
13 Aug 11.8 04:20:33 10° SE 04:24:59 11° ESE 04:29:24 10° ESE visible
14 Aug 11.6 05:21:30 10° S 05:38:47 24° SE 05:55:31 10° E visible
15 Aug 11.7 04:14:50 10° SSE 04:26:13 15° SE 04:37:52 10° E visible
